Regional Weather Roundup
Issued by NWS Grand Forks, ND

Home | Current Version | Previous Version | Text Only | Print | Product List | Glossary On
Versions: 1 2 3 4 5 6 7 8 9 10 11 12 13 14 15 16 17 18 19 20 21 22 23 24 25 26 27 28 29 30 31 32 33 34 35 36 37 38 39 40 41 42 43 44 45 46 47 48 49 50
000
ASUS43 KFGF 281710
RWRFGF
PRAIRIE TO PINES  WEATHER ROUNDUP
NATIONAL WEATHER SERVICE EASTERN NORTH DAKOTA/GRAND FORKS ND
1200 PM CDT SUN MAY 28 2017

 **SATELLITE DATA USED TO AUGMENT SKY COVER AT AUTOMATED STATIONS**
 *****  WEATHER ACROSS EASTERN NORTH DAKOTA  *****

CITY           SKY/WX    TMP DP  RH WIND       PRES   REMARKS
GRAND FORKS    CLOUDY    63  49  60 NW20G25   29.75F
GRAND FRKS AFB PTSUNNY   63  48  58 NW15G24   29.76F
DEVILS LAKE    PTSUNNY   64  44  48 NW21G30   29.79F
FARGO          PTSUNNY   66  48  52 NW22G31   29.76F
WAHPETON ARPT  PTSUNNY   64  43  45 NW22G29   29.78S
$$

 ***** WEATHER ACROSS CENTRAL AND WESTERN NORTH DAKOTA  *****

CITY           SKY/WX    TMP DP  RH WIND       PRES   REMARKS
BISMARCK       FAIR      70  42  36 NW17G26   29.92F
MINOT          FAIR      67  41  38 NW26G35   29.86F
JAMESTOWN      FAIR      64  43  46 NW21G30   29.83S
MINOT AFB      FAIR      67  44  43 NW26G36   29.84F
GARRISON         N/A     68  41  37 NW24G32   29.89F
WILLISTON      FAIR      72  36  26 NW16G26   29.96F
DICKINSON      FAIR      70  31  23 W20G30    29.95F
HETTINGER      FAIR      70  34  26 NW15G26   30.01F
$$

 *****  OTHER AIRPORT OBSERVATIONS IN OUR AREA  *****

CITY           SKY/WX    TMP DP  RH WIND       PRES   REMARKS
WALHALLA       NOT AVBL
GRAFTON AIRPOR FAIR      61  52  72 NW15G23   29.75F
VALLEY CITY AR FAIR      64  43  45 NW21G31   29.83R
CANDO          NOT AVBL
CAVALIER APRT  PTSUNNY   61  50  67 W15       29.72F
GWINNER        MOSUNNY   66  45  45 MISG      29.82S
SHEYENNE NWR     N/A     65  45  48 NW15      29.95S
ROLLA          PTSUNNY   63  41  45 NW28G48   29.77F
 ***** THE ABOVE OBSERVATIONS ARE NON NWS ARE NOT QUALITY
       CONTROLLED AND MAY MIS-REPORT RAIN FOR SNOW...
$$

  *****  WEATHER ACROSS NORTHERN MINNESOTA  *****

CITY           SKY/WX    TMP DP  RH WIND       PRES   REMARKS
FLAG ISLAND    PTSUNNY   55  48  76 NW12      29.65S
WARROAD        FAIR      59  50  72 W9G20     29.68S
ROSEAU         CLOUDY    54  48  82 W12       29.69S HAZE
HALLOCK        CLOUDY    61  48  63 NW20      29.72S
THF RVR FALLS  CLOUDY    55  50  82 W18G24    29.74F
BAUDETTE       CLOUDY    60  49  66 NW16      29.66S
WASKISH        CLOUDY    61  50  67 W16       29.68R
CROOKSTON      FAIR      55  54  94 NW15G21   29.76S
STEPHEN NDAWN    N/A     61  50  67 NW15        N/A
GREENBUSH NDAW   N/A     59  50  72 NW17        N/A
$$
  *****  WEATHER ACROSS CENTRAL AND WEST MINNESOTA  *****

CITY           SKY/WX    TMP DP  RH WIND       PRES   REMARKS
FOSSTON        LGT RAIN  50  48  93 W9        29.75S
BEMIDJI        PTSUNNY   58  48  70 W17G24    29.71R
PARK RAPIDS    LGT RAIN  61  45  55 NW21G29   29.72R
ELBOW LAKE     PTSUNNY   63  48  58 NW14G22   29.78F
WADENA         PTSUNNY   63  48  59 W15G23    29.74S
DETROIT LAKES  FAIR      59  50  72 NW18G25   29.77S
MOORHEAD       FAIR      66  46  48 NW24      29.77S
FERGUS FALLS   FAIR      64  48  55 N15G28    29.75F
MORRIS MN      FAIR      66  46  48 NW20G25   29.78S
STAPLES        PTSUNNY   63  45  51 NW18G25   29.73S
$$
  *****  WEATHER ELSEWHERE ACROSS MINNESOTA  *****

CITY           SKY/WX    TMP DP  RH WIND       PRES   REMARKS
DULUTH         CLOUDY    59  51  75 SW9       29.65S HAZE
INTRNTL FALLS  CLOUDY    58  51  78 SW6       29.64F
ELY            CLOUDY    57  52  82 CALM      29.63F
CLOQUET        FAIR      61  46  59 W13G22    29.67S
WHEATON        FAIR      66  45  45 NW21G28   29.82S
BRAINERD       PTSUNNY   62  48  60 W8        29.72F
HIBBING        PTSUNNY   60  48  64 W15G23    29.65S
ALEXANDRIA     FAIR      66  48  52 W16G24    29.78R
SAINT CLOUD    PTSUNNY   64  48  56 W14G25    29.73F
MINNEAPOLIS    FAIR      68  46  45 NW21G29   29.75S
$$

  *****  WEATHER ACROSS SOUTH DAKOTA  *****

CITY           SKY/WX    TMP DP  RH WIND       PRES   REMARKS
SIOUX FALLS    FAIR      70  50  49 NW8       29.88R
BROOKINGS      FAIR      66  45  46 NW21      29.87S
WATERTOWN      FAIR      67  43  41 NW18G31   29.85F
HURON          FAIR      72  40  31 NW23G31   29.89S
SISSETON         N/A     67  46  47 NW17      29.81S
ABERDEEN       FAIR      71  37  28 NW26G36   29.87S
MITCHELL       FAIR      73  41  31 N17G31    29.92R
PIERRE         FAIR      72  38  29 NW16      29.97S
MOBRIDGE       FAIR      72  38  29 NW22G30   29.92S
RAPID CITY     FAIR      71  29  21 N18       30.10S
$$

  *****  SOME WEATHER IN NEARBY STATES *****

CITY           SKY/WX    TMP DP  RH WIND       PRES   REMARKS
GLASGOW MT     FAIR      72  33  24 N25G35    30.07R
GREAT FALLS MT FAIR      66  42  41 VRB3      30.24F
CHEYENNE WY    PTSUNNY   59  30  33 NW17G24   30.29R
SCOTTSBLUFF NE FAIR      70  44  39 W14G20    30.18S
OMAHA NE       FAIR      76  50  40 SW13      29.91S
DES MOINES IA  FAIR      74  52  46 W9        29.86S
DAVENPORT IA   FAIR      72  51  47 NW10      29.81S
CHICAGO IL     PTSUNNY   73  59  61 W7        29.73F
EAU CLAIRE WI  PTSUNNY   66  46  48 W17       29.69S
LA CROSSE WI   FAIR      74  49  41 W13G22    29.72S
$$

  *****  SOME NATIONAL WEATHER *****

CITY           SKY/WX    TMP DP  RH WIND       PRES   REMARKS
LA GUARDIA NY  CLOUDY    69  55  60 S13G20    29.96R
RALEIGH NC     PTSUNNY   81  64  56 W8        29.84F
ATLANTA GA     PTSUNNY   80  70  71 W13       29.97F
NEW ORLEANS LA CLOUDY    86  74  67 S5        30.05R HX  94
OKLAHOMA CITY  FAIR      76  55  48 N12       30.07R
ALBUQUERQUE NM FAIR      68  36  30 E15       30.27F
SALT LAKE CITY FAIR      69  38  32 NW7       30.25F
LOS ANGELES CA FAIR      65  56  72 W9        30.03S
BOISE ID       FAIR      71  40  32 NW3       30.21F
SEATTLE WA     FAIR      67  53  61 W5        30.12S
$$

*** WEATHER ACROSS MANITOBA...SASKATCHEWAN AND ONTARIO ***
                ***ONTARIO***

CITY           SKY/WX    TMP DP  RH WIND       PRES   REMARKS
GERALDTON      PTSUNNY   68  48  49 SW8       29.66F
THUNDER BAY    PTSUNNY   64  46  52 NE14      29.64F
SIOUX LOOKOUT  LGT RAIN  55  52  88 SE7       29.61S
TORONTO        PTSUNNY   68  55  64 SE10      29.81F
BIG TROUT LK   PTSUNNY   66  46  48 SE8       29.61F
PICKLE LAKE    PTSUNNY   70  37  30 SW6       29.59F
DRYDEN         MOSUNNY   64  50  59 SE12      29.59F
KENORA         LGT RAIN  57  52  82 W8        29.63S
$$
                *** MANITOBA***

CITY           SKY/WX    TMP DP  RH WIND       PRES   REMARKS
BRANDON        CLOUDY    55  43  62 NW25G32   29.78S
DAUPHIN        LGT RAIN  48  45  87 N14       29.80R
ISLAND LAKE    LGT RAIN  55  54  94 W3        29.61S
PILOT MOUND      N/A     59  46  63 NW22G30     N/A
THE PAS        CLOUDY    46  43  87 N13       29.84R
THOMPSON       LGT RAIN  41  39  93 N10G17    29.76S
WINNIPEG       LGT RAIN  54  50  87 NW15      29.71S FOG
LYNN LAKE      CLOUDY    43  41  93 N17G23    29.89R
CHURCHILL      LGT RAIN  36  34  93 NE15      29.82S
GILLAM         LGT RAIN  37  36  93 N7        29.72R FOG
$$
                ***SASKATCHEWAN***

CITY           SKY/WX    TMP DP  RH WIND       PRES   REMARKS
ESTEVAN        MOSUNNY   64  41  42 NW32G40   29.93R
KINDERSLEY     MOSUNNY   63  34  34 NW24G35   30.17S
LLOYDMINSTER   MOSUNNY   55  37  50 N15G26    30.21S
PRINCE ALBERT  MOSUNNY   61  41  48 N23G32    30.05R
REGINA         PTSUNNY   63  41  45 NW28G33   30.01S
YORKTON          N/A     54  45  71 NW20G30   29.89S
N. BATTLEFORD  MOSUNNY   57  37  47 NW18G29   30.17R
LA RONGE       CLOUDY    54  45  71 NW17G25   30.05R
SASKATOON      MOSUNNY   59  39  47 NW22G29   30.09S
SWIFT CURRENT  MOSUNNY   61  34  36 N28G33    30.11F
$$
NOTE: THESE ARE AUTOMATED STATIONS WITH LIMITED QUALITY CONTROL
      "FAIR" INDICATES FEW OR NO CLOUDS BELOW 12,000 FEET WITH NO
      SIGNIFICANT WEATHER AND/OR OBSTRUCTIONS TO VISIBILITY.
      SKY/WX - SKY CONDITION AND SIGNIFICANT WEATHER.
      TMP - AIR TEMPERATURE.    DP   - DEWPOINT TEMPERATURE.
      RH  - RELATIVE HUMIDITY.  PRES - PRESSURE.
      HX  - HEAT INDEX.         WCI  - WIND CHILL INDEX.
$



USA.gov is the U.S. government's official web portal to all federal, state and local government web resources and services.